Location: Brissac
(47.3500°N, 0.4500°W)
Time: 16:27:06
(UTC+02:00)

ISS - Pass Details

Date: 21 May 2021
Orbit: 419 x 422 km, 51.6° (Epoch: 25 June)

Event Time Altitude Azimuth Distance (km) Brightness Sun altitude
Rises 01:58:59 0° 294° (WNW) 2,375 0.4 -22.5°
Reaches altitude 10° 02:01:05 10° 294° (WNW) 1,509 -0.7 -22.5°
Enters shadow 02:02:46 27° 293° (WNW) 849 -2.1 -22.5°
